Flag for France Weather past 2 weeks in Reims, France

Now
54 °F

Partly cloudy.


Feels Like: 52 °F
Forecast: 40 / 54 °F
Wind: 6 mph from Northeast

Location: Chalons-Vatry

Current Time: Apr 26, 2015 at 11:34:36 PM

Latest Report: Apr 26, 2015 at 11:00 PM


Visibility: 4 mi

Pressure: 29.65 "Hg

Humidity: 100%

Dew point: 54 °F

Location of ReimsLocation

Historic Weather in Reims — Graph

°F

Reims temperature yesterday

Maximum temperature yesterday: 63 °F (at 2:30 PM)
Minimum temperature yesterday: 50 °F (at 10:30 PM)
Average temperature yesterday: 57 °F

Past Weeks' High & Low Weather Summary

 TemperatureHumidityPressure
High77 °F (Apr 15, 2:30 PM)100% (Apr 12, 1:00 AM)30.51 "Hg (Apr 12, 1:00 AM)
Low36 °F (Apr 19, 4:30 AM)28% (Apr 20, 2:30 PM)29.62 "Hg (Apr 26, 5:00 PM)
Average55 °F66%30.12 "Hg
* Reported Apr 11 10:00 PM — Apr 26 10:00 PM, Reims, Weather by CustomWeather, © 2015

Note: Actual official high and low records may vary slightly from our data, if they occured in-between our weather recording intervals... More about our weather records

Advertising

Reims weather history for previous 24 hours

 ConditionsComfort  
Time TempWeatherWind HumidityBarometerVisibility
10:00 PM
Sun, Apr 26
54 °FLight rain. Broken clouds.5 mph94%29.65 "Hg6 mi
9:30 PM54 °FLight rain. Broken clouds.7 mph94%29.65 "HgN/A
9:00 PM54 °FDrizzle. Broken clouds.10 mph94%29.62 "HgN/A
8:30 PM55 °FDrizzle. Partly sunny.14 mph94%29.62 "HgN/A
8:00 PM59 °FPartly sunny.5 mph88%29.62 "HgN/A
7:30 PM59 °FPartly sunny.2 mph88%29.62 "HgN/A
7:00 PM59 °FLight rain. Broken clouds.No wind94%29.62 "HgN/A
6:30 PM59 °FRain. Broken clouds.3 mph88%29.62 "Hg4 mi
6:00 PM61 °FRain. Fog.No wind83%29.65 "Hg3 mi
5:30 PM61 °FRain. Broken clouds.5 mph88%29.62 "HgN/A
5:00 PM63 °FLight rain. Partly sunny.7 mph77%29.62 "HgN/A
4:30 PM64 °FClear.6 mph64%29.65 "HgN/A
4:00 PM66 °FScattered clouds.6 mph68%29.65 "HgN/A
3:30 PM64 °FPassing clouds.3 mph73%29.68 "HgN/A
3:00 PM64 °FClear.2 mph68%29.68 "HgN/A
2:30 PM64 °FScattered clouds.3 mph64%29.71 "HgN/A
2:00 PM64 °FScattered clouds.5 mph68%29.71 "HgN/A
1:30 PM64 °FPassing clouds.6 mph64%29.74 "HgN/A
1:00 PM66 °FScattered clouds.3 mph68%29.74 "HgN/A
12:30 PM63 °FPartly sunny.5 mph73%29.74 "HgN/A
12:00 PM63 °FBroken clouds.5 mph73%29.77 "HgN/A
11:30 AM63 °FPartly sunny.6 mph77%29.77 "HgN/A
11:00 AM61 °FPassing clouds.5 mph77%29.77 "HgN/A
10:30 AM59 °FLow clouds.6 mph82%29.77 "HgN/A
10:00 AM55 °FPartly sunny.7 mph94%29.77 "HgN/A
9:30 AM55 °FPartly sunny.7 mph94%29.77 "HgN/A
9:00 AM55 °FScattered clouds.8 mph100%29.77 "HgN/A
8:30 AM52 °FDense fog.7 mph100%29.77 "Hg1 mi
8:00 AM50 °FFog.5 mph100%29.80 "Hg0 mi
7:30 AM48 °FFog.5 mph100%29.80 "Hg0 mi
7:00 AM48 °FFog.3 mph100%29.77 "Hg0 mi
6:30 AM48 °FFog.5 mph100%29.77 "Hg0 mi
6:00 AM48 °FFog.5 mph100%29.77 "Hg0 mi
5:30 AM48 °FFog.7 mph100%29.80 "Hg3 mi
5:00 AM50 °FPassing clouds.7 mph100%29.80 "Hg4 mi
4:30 AM50 °FPartly cloudy.6 mph100%29.80 "HgN/A
4:00 AM50 °FPartly cloudy.5 mph94%29.80 "HgN/A
3:30 AM50 °FMostly cloudy.6 mph100%29.80 "HgN/A
3:00 AM50 °FPartly cloudy.7 mph100%29.80 "HgN/A
2:30 AM52 °FPartly cloudy.5 mph94%29.80 "HgN/A
2:00 AM52 °FPassing clouds.8 mph94%29.83 "HgN/A
1:30 AM54 °FPartly cloudy.9 mph94%29.83 "HgN/A
1:00 AM54 °FClear.10 mph94%29.83 "HgN/A
12:30 AM54 °FCool.10 mph100%29.83 "HgN/A
12:00 AM54 °FLight rain. Overcast.12 mph88%29.83 "HgN/A
11:00 PM
Sat, Apr 25
52 °FCool.7 mph94%29.83 "HgN/A
Weather by CustomWeather, © 2015

See weather overviewHow to use our weather pages